Location: La Brionne
(46.1728°N, 1.7849°E)
Time: 06:23:32
(UTC+00:00)

Cosmos 389 Rocket - Pass Details

Date: 16 June 2021
Orbit: 440 x 471 km, 81.1° (Epoch: 31 July)

Event Time Altitude Azimuth Distance (km) Brightness Sun altitude
Rises 23:31:55 0° 335° (NNW) 2,444 7.4 -20.3°
Reaches altitude 10° 23:34:19 10° 319° (NW) 1,570 5.9 -20.3°
Maximum altitude 23:36:56 21° 269° (W) 1,064 4.3 -20.3°
Enters shadow 23:37:09 21° 263° (W) 1,068 4.2 -20.3°
